When you browse on this site, cookies collect data to enhance your experience and personalize the content and advertising you see.
Visit our Privacy Policy to learn more. By continuing to use the site, you agree to this use of cookies and data.
  • In Hungary
  • List of Countries
  • For 7 days
  • Water Temperature
  • Satellite Maps
  • Weather Map
  • News
  • Weather Widgets
  • user-avatar
    Login

    Hourly Weather Volodarskiy

    Today, 21 November, Wednesday

    Time Temperature Precipitation Wind Pressure Humidity
    00:00 -6°C° 0 mm 3 mps 744 mmHg 88%
    01:00 -7°C° 0.1 mm 4 mps 743 mmHg 88%
    02:00 -7°C° 0.1 mm 4 mps 743 mmHg 89%
    03:00 -7°C° 0 mm 4 mps 742 mmHg 90%
    04:00 -7°C° 0.1 mm 5 mps 741 mmHg 89%
    05:00 -7°C° 0.1 mm 5 mps 741 mmHg 89%
    06:00 -8°C° 0.1 mm 6 mps 740 mmHg 88%
    07:00 -8°C° 0.2 mm 6 mps 740 mmHg 87%
    08:00 -8°C° 0.2 mm 6 mps 739 mmHg 87%
    09:00 -8°C° 0 mm 6 mps 738 mmHg 85%
    10:00 -6°C° 0.1 mm 6 mps 738 mmHg 85%
    11:00 -6°C° 0.1 mm 6 mps 738 mmHg 85%
    12:00 -6°C° 0.1 mm 6 mps 737 mmHg 84%
    13:00 -6°C° 0.1 mm 6 mps 737 mmHg 85%
    14:00 -5°C° 0.1 mm 6 mps 737 mmHg 86%
    15:00 -5°C° 0.1 mm 6 mps 736 mmHg 87%
    16:00 -5°C° 0.1 mm 6 mps 736 mmHg 84%
    17:00 -6°C° 0.1 mm 6 mps 737 mmHg 81%
    18:00 -6°C° 0.1 mm 6 mps 737 mmHg 79%
    19:00 -8°C° 0 mm 6 mps 737 mmHg 79%
    20:00 -8°C° 0 mm 6 mps 737 mmHg 80%
    21:00 -9°C° 0 mm 6 mps 737 mmHg 81%
    22:00 -9°C° 0 mm 6 mps 737 mmHg 82%
    23:00 -10°C° 0 mm 5 mps 737 mmHg 83%

    Tomorrow, 22 November, Thursday

    Time Temperature Precipitation Wind Pressure Humidity
    00:00 -11°C° 0 mm 5 mps 738 mmHg 84%
    01:00 -11°C° 0 mm 5 mps 738 mmHg 86%
    02:00 -11°C° 0 mm 5 mps 737 mmHg 88%
    03:00 -11°C° 0 mm 5 mps 737 mmHg 89%
    04:00 -11°C° 0 mm 5 mps 737 mmHg 90%
    05:00 -11°C° 0 mm 5 mps 737 mmHg 90%
    06:00 -11°C° 0 mm 5 mps 737 mmHg 91%
    07:00 -11°C° 0 mm 5 mps 737 mmHg 90%
    08:00 -10°C° 0 mm 5 mps 736 mmHg 89%
    09:00 -10°C° 0 mm 5 mps 736 mmHg 88%
    10:00 -9°C° 0.1 mm 6 mps 735 mmHg 87%
    11:00 -9°C° 0.1 mm 6 mps 735 mmHg 86%
    12:00 -9°C° 0.1 mm 7 mps 734 mmHg 85%
    13:00 -8°C° 0.4 mm 7 mps 734 mmHg 86%
    14:00 -8°C° 0.4 mm 8 mps 733 mmHg 87%
    15:00 -8°C° 0.4 mm 8 mps 732 mmHg 88%
    16:00 -8°C° 0.4 mm 8 mps 732 mmHg 88%
    17:00 -8°C° 0.4 mm 8 mps 731 mmHg 89%
    18:00 -8°C° 0.4 mm 7 mps 730 mmHg 89%
    19:00 -8°C° 0.3 mm 7 mps 729 mmHg 90%
    20:00 -9°C° 0.3 mm 7 mps 728 mmHg 90%
    21:00 -9°C° 0.3 mm 6 mps 728 mmHg 90%
    22:00 -8°C° 0.4 mm 6 mps 727 mmHg 91%
    23:00 -8°C° 0.4 mm 6 mps 726 mmHg 92%

    Day after tomorrow, 23 November, Friday

    Time Temperature Precipitation Wind Pressure Humidity
    00:00 -6°C° 0.4 mm 6 mps 726 mmHg 92%
    01:00 -8°C° 0.5 mm 7 mps 726 mmHg 87%
    02:00 -10°C° 0.5 mm 8 mps 726 mmHg 82%
    03:00 -11°C° 0.5 mm 9 mps 726 mmHg 76%
    04:00 -12°C° 0 mm 9 mps 727 mmHg 78%
    05:00 -13°C° 0 mm 8 mps 727 mmHg 80%
    06:00 -16°C° 0 mm 8 mps 728 mmHg 82%
    07:00 -16°C° 0 mm 8 mps 729 mmHg 82%
    08:00 -16°C° 0 mm 8 mps 730 mmHg 82%
    09:00 -16°C° 0 mm 8 mps 730 mmHg 82%
    10:00 -15°C° 0.1 mm 9 mps 731 mmHg 80%
    11:00 -15°C° 0.1 mm 10 mps 732 mmHg 77%
    12:00 -14°C° 0.1 mm 11 mps 733 mmHg 75%
    13:00 -14°C° 0.1 mm 10 mps 734 mmHg 74%
    14:00 -15°C° 0.1 mm 10 mps 735 mmHg 74%
    15:00 -15°C° 0.1 mm 10 mps 736 mmHg 73%
    16:00 -15°C° 0 mm 9 mps 737 mmHg 77%
    17:00 -15°C° 0 mm 8 mps 738 mmHg 80%
    18:00 -15°C° 0 mm 7 mps 739 mmHg 83%
    19:00 -15°C° 0 mm 7 mps 740 mmHg 85%
    20:00 -15°C° 0 mm 6 mps 741 mmHg 87%
    21:00 -14°C° 0 mm 5 mps 742 mmHg 88%
    22:00 -15°C° 0 mm 5 mps 742 mmHg 89%
    23:00 -15°C° 0 mm 4 mps 743 mmHg 90%

    24 November, Saturday

    Time Temperature Precipitation Wind Pressure Humidity
    00:00 -16°C° 0 mm 4 mps 743 mmHg 91%
    01:00 -15°C° 0 mm 4 mps 743 mmHg 91%
    02:00 -14°C° 0 mm 4 mps 743 mmHg 92%
    03:00 -14°C° 0 mm 4 mps 744 mmHg 92%
    04:00 -14°C° 0 mm 5 mps 744 mmHg 91%
    05:00 -14°C° 0 mm 5 mps 743 mmHg 91%
    06:00 -14°C° 0 mm 5 mps 743 mmHg 90%
    07:00 -13°C° 0 mm 5 mps 743 mmHg 90%
    08:00 -13°C° 0 mm 5 mps 744 mmHg 89%
    09:00 -14°C° 0 mm 6 mps 744 mmHg 89%
    10:00 -12°C° 0 mm 6 mps 743 mmHg 88%
    11:00 -11°C° 0 mm 6 mps 743 mmHg 87%
    12:00 -11°C° 0 mm 7 mps 743 mmHg 86%
    13:00 -11°C° 0 mm 7 mps 742 mmHg 86%
    14:00 -11°C° 0 mm 7 mps 742 mmHg 86%
    15:00 -9°C° 0 mm 7 mps 742 mmHg 85%
    16:00 -9°C° 0.1 mm 7 mps 742 mmHg 86%
    17:00 -9°C° 0.1 mm 7 mps 742 mmHg 86%
    18:00 -8°C° 0.1 mm 7 mps 741 mmHg 86%
    19:00 -8°C° 0 mm 7 mps 741 mmHg 86%
    20:00 -8°C° 0 mm 7 mps 741 mmHg 86%
    21:00 -8°C° 0 mm 7 mps 741 mmHg 86%
    22:00 -8°C° 0 mm 7 mps 741 mmHg 86%
    23:00 -8°C° 0 mm 7 mps 741 mmHg 86%

    25 November, Sunday

    Time Temperature Precipitation Wind Pressure Humidity
    00:00 -8°C° 0 mm 7 mps 741 mmHg 86%
    01:00 -8°C° 0 mm 7 mps 740 mmHg 86%
    02:00 -8°C° 0 mm 7 mps 740 mmHg 86%
    03:00 -7°C° 0 mm 7 mps 740 mmHg 87%
    04:00 -7°C° 0.1 mm 7 mps 740 mmHg 87%
    05:00 -7°C° 0.1 mm 7 mps 740 mmHg 88%
    06:00 -7°C° 0.1 mm 7 mps 740 mmHg 88%
    07:00 -7°C° 0.1 mm 7 mps 740 mmHg 88%
    08:00 -7°C° 0.1 mm 7 mps 741 mmHg 88%
    09:00 -7°C° 0.1 mm 7 mps 741 mmHg 88%
    10:00 -6°C° 0 mm 6 mps 742 mmHg 87%
    11:00 -6°C° 0 mm 6 mps 742 mmHg 86%
    12:00 -6°C° 0 mm 5 mps 742 mmHg 85%
    13:00 -6°C° 0 mm 5 mps 743 mmHg 87%
    14:00 -7°C° 0 mm 4 mps 743 mmHg 89%
    15:00 -7°C° 0 mm 3 mps 743 mmHg 91%
    16:00 -8°C° 0 mm 3 mps 744 mmHg 92%
    17:00 -9°C° 0 mm 3 mps 744 mmHg 93%
    18:00 -9°C° 0 mm 3 mps 744 mmHg 94%
    19:00 -9°C° 0 mm 3 mps 744 mmHg 94%
    20:00 -8°C° 0 mm 2 mps 744 mmHg 94%
    21:00 -9°C° 0 mm 2 mps 744 mmHg 94%
    22:00 -9°C° 0 mm 2 mps 744 mmHg 94%
    23:00 -9°C° 0 mm 2 mps 744 mmHg 95%

    26 November, Monday

    Time Temperature Precipitation Wind Pressure Humidity
    00:00 -9°C° 0 mm 2 mps 743 mmHg 95%
    01:00 -8°C° 0.1 mm 2 mps 743 mmHg 95%
    02:00 -7°C° 0.1 mm 2 mps 743 mmHg 96%
    03:00 -7°C° 0.1 mm 2 mps 742 mmHg 96%
    04:00 -7°C° 0.3 mm 3 mps 742 mmHg 96%
    05:00 -7°C° 0.3 mm 3 mps 741 mmHg 96%
    06:00 -8°C° 0.3 mm 4 mps 741 mmHg 95%
    07:00 -7°C° 0.4 mm 4 mps 740 mmHg 95%
    08:00 -7°C° 0.4 mm 5 mps 740 mmHg 94%
    09:00 -7°C° 0.4 mm 5 mps 739 mmHg 93%
    10:00 -7°C° 0.5 mm 5 mps 739 mmHg 93%
    11:00 -6°C° 0.5 mm 6 mps 738 mmHg 93%
    12:00 -6°C° 0.5 mm 6 mps 737 mmHg 92%
    13:00 -5°C° 0.6 mm 6 mps 737 mmHg 92%
    14:00 -5°C° 0.6 mm 6 mps 736 mmHg 92%
    15:00 -5°C° 0.6 mm 6 mps 735 mmHg 92%
    16:00 -5°C° 0.6 mm 6 mps 735 mmHg 93%
    17:00 -5°C° 0.6 mm 5 mps 734 mmHg 93%
    18:00 -5°C° 0.6 mm 5 mps 734 mmHg 94%
    19:00 -5°C° 0.4 mm 5 mps 733 mmHg 94%
    20:00 -4°C° 0.4 mm 4 mps 733 mmHg 94%
    21:00 -4°C° 0.4 mm 4 mps 732 mmHg 95%
    22:00 -4°C° 0.3 mm 3 mps 732 mmHg 95%
    23:00 -5°C° 0.3 mm 3 mps 732 mmHg 96%
    Show more